Seeley, CA

5:01 AM PST on February 13, 2016 (GMT -0800)
El Centro Naval Air Facility

Weather History for KNJK - February, 2013

Change the Weather History Date:

Friday, February 15, 2013

  Actual Average Record
Temperature  
Mean Temperature 65 °F -  
Max Temperature 77 °F 69 °F 87 °F (2014)
Min Temperature 51 °F 47 °F 39 °F (2001)
Growing Degree Days 15 (Base 50)    
Moisture  
Dew Point 24 °F    
Average Humidity 26    
Maximum Humidity 45    
Minimum Humidity 11    
Precipitation  
Precipitation 0.00 in - - ()
Sea Level Pressure  
Sea Level Pressure 30.24 in    
Wind  
Wind Speed 7 mph (NW)    
Max Wind Speed 17 mph    
Max Gust Speed 23 mph    
Visibility 10 miles    
Events      
Averages and records for this station are not official NWS values.
T = Trace of Precipitation, MM = Missing Value Source: NWS Daily Summary

Daily Weather History Graph

Daily Weather History Graph

Search for Another Location

Airport or City:

Trip Planner

Search our weather history database for the weather conditions in past years. The results will help you decide how hot, cold, wet, or windy it might be!

Date:

Astronomy

Feb. 15, 2013 Rise Set
Actual Time 6:25 AM PST 5:28 PM PST
Civil Twilight 6:00 AM PST 5:53 PM PST
Nautical Twilight 5:31 AM PST 6:22 PM PST
Astronomical Twilight 5:02 AM PST 6:51 PM PST
Moon 9:25 AM PST (2/15) 11:10 PM PST (2/15)
Length of Visible Light 11h 53m
Length of Day
11h 02m
Waxing Crescent, 31% of the Moon is Illuminated
Feb 15
Waxing Crescent
Feb 17
First Quarter
Feb 25
Full
Mar 4
Last Quarter
Mar 11
New

Hourly Weather History & Observations

Time (PST) Temp. Dew Point Humidity Pressure Visibility Wind Dir Wind Speed Gust Speed Precip Events Conditions
12:56 AM 55.0 °F 28.0 °F 35% 30.19 in 10.0 mi NW 9.2 mph - N/A   Clear
1:56 AM 55.9 °F 28.9 °F 36% 30.19 in 10.0 mi WNW 6.9 mph - N/A   Clear
2:56 AM 55.9 °F 28.9 °F 36% 30.19 in 10.0 mi West 5.8 mph - N/A   Clear
3:56 AM 55.9 °F 32.0 °F 40% 30.19 in 10.0 mi NNW 4.6 mph - N/A   Clear
4:56 AM 53.1 °F 30.9 °F 43% 30.21 in 10.0 mi Calm Calm - N/A   Clear
5:56 AM 53.1 °F 30.9 °F 43% 30.22 in 10.0 mi North 10.4 mph - N/A   Clear
6:56 AM 53.1 °F 32.0 °F 45% 30.25 in 10.0 mi NNW 6.9 mph - N/A   Mostly Cloudy
7:56 AM 57.0 °F 34.0 °F 42% 30.28 in 10.0 mi SSW 3.5 mph - N/A   Scattered Clouds
8:56 AM 66.0 °F 32.0 °F 28% 30.30 in 10.0 mi Calm Calm - N/A   Scattered Clouds
10:56 AM 73.0 °F 26.1 °F 17% 30.30 in 10.0 mi NE 5.8 mph - N/A   Scattered Clouds
11:56 AM 75.9 °F 21.9 °F 13% 30.28 in 10.0 mi NE 11.5 mph - N/A   Scattered Clouds
12:56 PM 77.0 °F 18.0 °F 11% 30.25 in 10.0 mi NNE 17.3 mph 23.0 mph N/A   Scattered Clouds
1:56 PM 75.9 °F 19.0 °F 12% 30.24 in 10.0 mi North 4.6 mph 17.3 mph N/A   Scattered Clouds
2:56 PM 77.0 °F 18.0 °F 11% 30.22 in 10.0 mi NNE 9.2 mph - N/A   Scattered Clouds
3:56 PM 75.9 °F 17.1 °F 11% 30.22 in 10.0 mi North 4.6 mph - N/A   Mostly Cloudy
4:56 PM 73.9 °F 17.1 °F 12% 30.21 in 10.0 mi Calm Calm - N/A   Mostly Cloudy
5:56 PM 64.9 °F 19.0 °F 17% 30.22 in 10.0 mi WNW 4.6 mph - N/A   Scattered Clouds
6:56 PM 62.1 °F 21.9 °F 21% 30.23 in 10.0 mi West 4.6 mph - N/A   Clear
7:56 PM 57.9 °F 24.1 °F 27% 30.25 in 10.0 mi West 5.8 mph - N/A   Clear
8:56 PM 55.9 °F 21.9 °F 27% 30.26 in 10.0 mi West 9.2 mph - N/A   Clear
9:56 PM 54.0 °F 19.0 °F 25% 30.26 in 10.0 mi West 9.2 mph - N/A   Clear
10:56 PM 53.1 °F 19.0 °F 26% 30.26 in 10.0 mi West 10.4 mph - N/A   Clear
11:56 PM 51.1 °F 18.0 °F 27% 30.26 in 10.0 mi West 9.2 mph - N/A   Clear